Theta_e
310 310 310 310 310 310 310 311 311 311 311 312 312 312 312 312 312 317 317 328 333 331 329 334 335 335 349 352 352 348 349 353 355 351 350 344 353 348 347 351 351 349 350 348 350
310 310 310 310 310 310 310 310 311 311 311 311 312 312 313 312 316 321 330 329 333 334 332 342 350 349 354 352 349 348 350 353 348 347 347 350 350 350 351 352 351 352 350 351 350
310 310 310 310 310 310 310 310 310 310 311 311 311 312 312 312 323 325 333 337 329 334 335 350 351 354 358 349 351 350 352 350 350 347 349 350 345 348 351 353 350 354 353 350 348
309 309 309 309 309 310 310 310 311 310 310 311 311 311 312 320 328 333 329 332 329 335 341 351 354 350 354 356 351 352 351 351 351 349 351 352 348 350 350 350 346 350 350 349 349
309 308 309 308 309 310 310 310 311 310 310 310 310 311 313 313 316 323 326 330 330 335 338 351 354 352 360 358 351 354 354 351 350 349 350 349 350 349 352 346 349 349 350 349 348
310 309 309 309 309 309 309 310 311 311 311 310 310 311 321 314 320 324 332 330 333 331 334 348 350 351 351 349 352 353 353 350 347 349 351 351 348 347 347 348 351 350 350 349 347
310 310 309 308 309 309 309 310 310 311 311 311 310 315 320 312 328 332 332 331 331 332 335 343 349 351 350 356 350 355 354 351 351 351 347 344 348 348 345 348 352 351 350 349 348
311 310 308 308 307 308 309 310 310 311 312 311 312 321 309 316 318 319 322 323 332 332 339 348 350 354 351 351 357 360 355 350 349 350 345 341 346 348 345 347 350 350 350 349 348
310 307 306 306 306 307 309 310 311 314 314 313 318 318 311 317 320 321 320 324 330 331 336 349 348 356 354 360 360 360 357 357 354 348 346 344 345 347 343 345 346 345 346 346 343
309 308 306 306 306 307 309 310 315 317 317 319 324 314 313 319 325 328 325 325 330 332 345 344 349 354 359 361 364 359 361 356 353 348 347 347 348 347 344 344 345 343 343 342 343
309 308 306 306 306 307 309 310 306 313 322 315 313 312 316 320 322 325 326 325 332 334 338 342 347 352 353 357 357 354 356 355 349 347 350 350 349 349 345 343 343 341 341 341 342
310 309 308 307 307 307 310 307 311 313 314 313 316 316 316 317 318 320 324 329 334 337 343 347 347 343 354 357 358 357 358 357 349 347 348 349 350 349 346 346 345 344 342 342 341
310 310 310 307 308 311 308 310 311 312 314 315 313 316 316 317 318 319 324 327 332 336 342 346 347 348 353 353 356 356 354 354 351 349 348 348 347 348 346 346 345 344 342 341 341
310 311 311 308 308 307 308 313 311 311 312 315 316 315 318 318 320 320 323 330 337 334 341 343 344 353 352 354 354 355 347 349 352 350 352 345 353 345 341 346 347 345 343 342 341
309 311 310 309 309 307 311 311 310 310 312 315 318 318 318 319 320 323 324 330 339 344 344 346 350 354 355 354 351 354 351 350 351 350 349 349 349 345 341 345 344 345 343 342 342
309 311 309 309 307 310 310 310 311 314 319 320 319 319 321 321 324 325 327 332 334 344 343 344 346 348 351 350 350 351 350 347 344 344 349 346 346 348 343 341 341 344 343 342 341
310 310 308 308 308 309 310 308 315 318 316 322 320 320 319 320 323 326 330 339 340 347 348 344 347 346 349 354 350 349 348 358 350 350 350 342 347 345 341 336 339 338 341 343 342
309 311 311 310 309 308 308 312 319 316 317 317 318 316 319 321 322 326 327 332 331 340 342 348 350 348 346 349 351 349 347 352 354 354 350 343 350 343 338 339 337 338 338 342 343
309 310 309 309 309 309 308 314 315 315 318 316 315 316 316 321 323 325 325 326 327 336 345 345 347 344 346 349 349 352 351 344 349 350 354 351 348 341 340 342 343 340 343 345 345
308 307 310 313 310 308 309 313 313 314 315 315 317 317 317 316 320 324 324 324 326 332 333 336 345 342 346 347 346 348 348 355 349 357 359 352 350 348 342 343 346 345 346 345 344
306 311 311 311 309 306 310 310 314 313 314 316 317 316 317 317 319 321 325 326 324 325 330 330 335 339 345 347 349 350 351 348 349 349 353 353 348 338 342 340 348 349 348 348 349
304 312 312 309 307 303 310 313 314 315 312 314 315 315 315 316 317 319 320 323 323 326 330 330 331 341 347 343 343 346 348 348 356 350 346 343 344 338 340 338 345 349 350 354 349
309 310 312 310 311 310 314 316 313 314 314 313 315 314 314 317 319 316 317 320 321 324 326 329 331 343 347 344 343 346 347 345 344 344 347 349 348 337 331 337 338 349 356 350 347
311 317 311 309 308 318 319 320 321 319 315 314 314 316 317 317 313 317 317 320 321 322 331 331 330 333 339 343 344 348 346 344 343 345 347 344 345 342 339 334 335 350 354 348 345
309 314 313 316 314 315 316 318 321 322 319 318 318 315 316 317 316 313 314 317 321 322 327 327 330 332 332 338 343 344 345 346 345 346 348 347 344 342 337 334 341 356 350 347 345
310 312 311 314 313 314 316 318 321 320 319 320 318 320 319 314 316 319 315 319 322 323 322 318 329 332 334 336 341 342 344 345 344 345 342 340 337 332 337 352 356 353 349 348 346
307 308 311 314 314 315 316 318 318 318 318 318 319 319 319 316 317 316 312 312 317 322 321 321 326 330 333 337 342 345 339 343 343 341 340 342 341 353 355 357 357 353 349 348 347
Wind_Speed
19 19 20 20 21 21 21 20 20 20 20 21 21 22 23 25 25 12 6 8 6 14 12 12 11 11 9 4 3 3 3 1 1 4 5 4 2 3 4 8 2 3 5 11 31
19 20 21 21 22 22 22 21 21 21 21 21 21 22 22 25 19 9 9 9 12 11 14 13 6 11 3 2 2 3 2 5 4 3 2 3 4 7 5 2 3 8 14 32 29
20 21 21 22 23 23 22 22 21 22 21 21 21 21 20 19 5 5 8 9 20 12 8 8 13 3 4 2 4 4 4 3 3 3 1 3 3 5 9 5 7 11 19 21 26
21 21 22 23 23 23 23 23 22 22 21 20 20 20 18 6 4 1 7 6 21 14 12 10 4 3 3 5 3 2 5 3 3 2 3 2 1 4 9 7 9 19 25 22 20
22 23 23 24 25 24 23 23 23 22 21 20 18 17 7 3 9 10 9 8 20 14 10 5 3 5 4 3 4 2 2 4 6 7 7 4 6 5 7 5 14 19 19 19 16
23 23 23 25 25 25 25 25 24 23 23 19 16 9 1 4 3 6 1 19 18 14 5 6 5 4 4 1 0 2 5 8 5 5 4 5 2 9 3 14 16 20 17 16 16
23 23 24 25 26 26 28 27 26 25 23 19 13 2 2 15 6 8 10 10 13 11 4 6 8 3 4 3 3 2 5 7 2 1 1 8 5 3 8 12 16 16 15 14 14
23 24 25 26 27 28 29 28 27 28 22 14 6 5 8 7 9 17 22 10 10 8 2 10 9 4 4 3 3 3 4 4 3 7 3 4 4 1 9 16 13 13 13 14 14
24 25 26 26 28 30 30 28 25 11 4 6 7 4 9 6 8 16 17 9 15 6 3 6 3 2 0 1 5 5 2 3 7 3 2 4 0 5 4 11 12 11 12 13 12
25 27 27 27 30 30 31 24 3 5 6 5 1 1 6 4 5 3 8 17 5 7 4 4 3 1 3 3 5 3 2 3 5 4 5 3 3 8 7 9 12 9 9 9 13
28 28 29 29 29 29 28 3 3 1 3 8 5 4 4 6 5 4 5 12 7 4 6 3 3 8 12 8 5 4 1 5 4 3 1 2 3 9 10 6 8 9 10 10 12
28 29 29 31 30 22 6 1 8 1 7 11 14 11 19 6 5 3 7 6 6 5 6 4 8 6 5 5 6 2 7 8 7 7 3 3 5 8 14 13 15 15 13 15 12
30 28 31 30 21 2 8 4 4 10 2 8 7 8 7 10 9 8 7 4 7 7 6 7 4 11 9 5 9 5 4 5 6 3 1 2 6 4 8 6 12 14 16 14 17
31 29 29 32 1 11 8 8 11 2 3 7 4 8 7 10 6 9 14 7 3 10 10 6 5 11 7 9 3 3 6 7 3 3 4 2 4 5 6 14 16 18 15 18 17
32 30 26 17 16 4 3 9 8 4 3 3 4 2 2 10 7 7 10 3 10 7 7 7 8 12 12 8 13 8 4 6 2 2 1 1 3 7 1 5 14 17 18 18 20
36 31 24 11 8 13 10 12 5 5 6 5 4 4 5 3 3 5 5 3 5 6 2 6 1 7 7 9 16 4 4 5 2 2 1 3 4 5 5 7 5 11 17 21 19
42 36 23 9 5 4 5 1 4 4 5 4 1 3 3 6 4 5 8 7 7 6 4 1 2 1 5 6 2 3 6 1 1 0 5 3 3 8 6 7 6 9 13 19 18
44 31 14 23 4 22 7 4 4 4 5 4 3 2 6 6 5 3 7 8 3 7 4 7 4 7 5 7 7 6 7 5 6 5 4 3 6 6 6 8 11 12 10 11 15
37 10 5 3 19 8 4 3 8 6 3 6 5 6 5 2 6 4 6 9 8 7 8 5 6 1 2 3 2 5 3 4 6 3 2 3 6 8 6 8 4 9 9 13 15
16 8 5 8 15 5 4 5 4 4 4 4 3 2 5 6 2 6 7 5 7 8 6 8 3 4 4 5 2 4 6 4 2 4 4 4 5 5 6 8 7 6 7 7 7
3 2 12 7 14 4 4 7 5 6 4 3 1 4 2 3 1 2 6 5 7 8 7 6 4 2 6 7 9 3 2 5 5 4 5 1 6 7 8 5 7 6 2 2 4
5 4 6 6 3 1 3 4 3 3 3 3 1 6 6 3 3 3 7 9 9 10 11 9 6 5 6 2 1 2 6 7 5 2 1 2 7 1 5 4 4 3 5 7 8
3 2 2 6 3 3 5 3 4 4 5 3 3 6 4 1 4 4 4 3 5 8 10 8 1 3 3 5 2 2 4 4 5 4 6 4 5 4 6 4 6 7 5 7 10
2 3 3 3 0 0 3 3 4 4 4 3 4 1 1 3 6 5 3 3 3 6 3 8 5 11 11 7 6 5 5 5 6 4 5 10 16 9 8 6 7 5 9 10 10
4 2 1 4 3 3 2 2 3 5 4 4 2 6 5 4 2 6 6 5 4 2 3 7 9 7 7 10 9 9 11 15 11 15 10 19 17 19 8 7 7 11 11 12 10
3 4 4 4 4 5 0 1 0 5 2 5 3 7 6 7 10 4 2 3 5 2 3 2 3 6 15 9 12 8 15 17 20 15 9 12 10 8 1 7 9 15 17 16 15
6 2 1 4 4 3 1 3 3 9 7 8 6 7 7 8 4 14 10 7 6 5 4 4 3 1 8 6 7 5 8 11 8 10 12 12 21 5 5 9 15 17 18 20 18
Wind_Direction
348 346 346 346 346 346 345 341 337 335 335 336 337 338 333 324 323 305 243 234 203 211 181 143 154 177 156 116 138 106 57 66 356 10 296 341 107 82 32 129 158 110 131 139 145
345 344 344 343 343 342 341 339 335 332 332 333 335 336 332 328 324 258 289 225 174 164 161 159 150 144 94 88 44 107 121 207 198 227 213 287 164 147 107 210 78 76 94 129 144
343 342 341 340 340 340 339 337 334 331 330 331 331 334 332 332 318 246 7 209 189 182 168 151 149 106 109 132 189 143 196 184 266 252 201 321 141 139 122 227 209 160 144 145 150
341 340 339 338 337 337 336 334 331 331 329 329 328 331 329 341 290 141 333 26 173 168 153 134 127 104 164 167 211 163 237 235 266 214 307 227 191 145 163 203 168 159 155 151 159
340 339 338 337 335 335 332 329 327 326 323 324 323 329 340 348 253 294 324 151 160 170 169 141 151 133 206 171 185 127 225 229 241 262 239 184 213 183 202 79 126 139 149 155 158
340 338 337 335 334 332 330 326 323 319 315 313 312 318 307 268 284 287 198 157 168 179 163 133 175 206 114 165 193 297 275 270 272 252 222 149 214 143 87 126 132 145 157 162 166
339 337 335 334 333 331 328 324 321 315 307 303 294 248 240 237 109 100 128 164 186 190 147 140 155 160 135 159 251 195 1 333 201 342 206 156 95 214 140 135 143 152 159 167 176
337 337 338 339 337 332 326 321 321 310 301 287 228 157 245 258 257 247 234 257 194 187 94 137 137 103 129 238 195 48 56 6 301 3 333 111 296 45 151 138 152 154 170 177 185
336 343 342 338 336 332 325 325 319 316 318 141 136 167 264 289 255 249 225 176 181 175 150 126 63 75 3 131 27 28 313 334 335 348 275 70 295 143 156 144 152 164 178 185 185
336 341 338 335 334 332 325 329 351 91 110 116 93 1 266 243 220 224 203 162 141 125 70 62 64 45 64 52 197 222 20 309 307 309 28 13 117 150 170 161 163 172 185 194 194
341 338 333 331 331 329 328 346 15 9 219 196 199 243 298 313 284 176 144 129 117 112 150 202 138 215 203 182 158 148 213 264 289 277 351 243 149 182 175 159 172 189 196 206 211
338 335 332 330 333 326 339 56 109 171 304 240 245 256 271 326 322 284 181 125 140 161 113 76 228 217 226 241 223 341 316 285 267 271 118 227 266 184 185 197 192 196 204 210 210
339 335 334 331 330 351 319 236 181 356 233 285 208 202 212 150 215 248 162 159 139 145 174 158 228 156 177 239 257 257 220 278 244 328 357 50 299 186 210 206 211 210 212 214 210
336 333 333 333 329 326 283 157 332 199 19 271 249 262 163 146 239 199 190 152 133 174 155 207 186 157 200 209 156 308 220 222 251 141 202 101 256 288 208 210 208 216 204 212 211
335 331 327 331 299 274 153 313 322 135 328 228 211 5 225 167 151 219 171 70 154 149 121 230 165 167 167 208 166 221 160 168 221 163 37 272 105 270 134 220 224 219 214 216 209
331 325 323 320 240 252 271 326 130 49 253 320 147 164 132 264 261 109 151 121 146 121 61 185 110 169 188 168 181 133 91 47 61 131 192 268 152 266 196 208 211 224 221 219 210
329 318 299 250 228 184 344 61 58 162 331 307 25 170 187 171 249 163 155 160 153 116 144 55 215 189 141 111 212 116 96 314 263 237 213 226 121 245 241 238 220 217 220 223 213
327 321 289 231 234 255 296 66 164 236 249 300 329 271 179 161 241 168 130 168 197 123 133 156 259 172 182 189 173 175 157 171 199 185 210 130 226 248 197 250 254 247 241 213 206
328 326 277 296 218 170 92 125 201 208 282 327 319 57 350 324 176 149 184 181 176 163 160 137 237 66 108 61 108 180 172 161 100 343 62 243 288 290 251 266 264 252 205 196 191
324 325 326 324 167 165 86 227 230 220 324 18 56 29 19 326 14 155 185 192 184 173 157 203 189 194 157 118 199 182 160 72 355 172 213 278 277 242 276 278 294 268 221 177 159
5 33 357 126 139 50 166 226 262 240 225 348 348 341 341 290 300 260 215 239 191 188 142 135 122 224 120 190 179 148 167 60 131 143 158 236 259 214 222 223 260 262 169 156 127
334 47 4 131 66 15 165 210 249 289 35 330 250 226 220 303 292 274 215 219 189 154 156 197 155 166 205 269 224 159 168 155 134 248 175 170 268 246 223 185 159 348 45 48 52
11 288 31 327 83 349 303 286 239 233 260 224 262 199 216 226 331 240 259 241 198 153 172 172 173 103 14 354 15 207 210 141 92 122 190 206 260 275 151 166 161 158 100 76 65
9 12 339 48 15 265 6 305 306 318 260 211 253 224 351 265 221 272 282 300 282 178 185 142 153 184 214 202 153 195 199 199 137 131 233 229 257 264 252 162 217 142 129 114 105
15 18 123 322 348 343 270 289 325 336 328 317 262 224 190 247 280 221 232 274 277 250 105 147 188 172 193 182 170 183 191 188 198 207 198 244 239 247 248 257 181 140 122 119 123
56 16 348 291 308 310 270 112 296 333 268 292 211 335 294 228 209 270 286 204 234 253 97 70 276 163 198 179 177 198 210 195 206 218 242 258 258 223 161 114 147 149 145 143 156
11 10 84 292 335 331 271 38 349 333 250 250 337 338 282 240 271 263 229 258 244 189 207 119 111 95 217 173 128 254 196 185 200 207 207 226 245 139 174 196 175 158 160 159 166